Total_Precipitation_Accumulation
0.14 0.11 0.09 0.08 0.06 0.06 0.06 0.06 0.08 0.09 0.08 0.06 0.06 0.05 0.04 0.03 0.03 0.02 0.01 0.00 0.00 0.02 0.03 0.04 0.04 0.07 0.10 0.13 0.16 0.19 0.22 0.25 0.29 0.35 0.41 0.50 0.67 0.87
0.12 0.11 0.11 0.10 0.10 0.10 0.11 0.12 0.13 0.15 0.15 0.13 0.11 0.10 0.09 0.07 0.05 0.03 0.01 0.01 0.01 0.01 0.02 0.05 0.07 0.08 0.10 0.13 0.15 0.18 0.21 0.25 0.29 0.36 0.43 0.50 0.59 0.69
0.12 0.13 0.14 0.15 0.17 0.18 0.21 0.23 0.25 0.25 0.24 0.19 0.15 0.12 0.10 0.08 0.05 0.02 0.01 0.01 0.01 0.02 0.03 0.04 0.06 0.08 0.11 0.13 0.16 0.18 0.22 0.26 0.32 0.38 0.46 0.52 0.58 0.63
0.15 0.16 0.19 0.21 0.25 0.28 0.29 0.29 0.27 0.23 0.20 0.16 0.10 0.08 0.06 0.04 0.02 0.01 0.01 0.01 0.01 0.01 0.02 0.03 0.05 0.07 0.09 0.12 0.16 0.21 0.26 0.30 0.34 0.35 0.37 0.39 0.43 0.50
0.18 0.21 0.24 0.26 0.29 0.29 0.27 0.24 0.20 0.16 0.13 0.12 0.07 0.04 0.03 0.02 0.02 0.01 0.00 0.00 0.00 0.00 0.00 0.01 0.02 0.06 0.11 0.15 0.19 0.22 0.23 0.22 0.21 0.20 0.21 0.23 0.26 0.30
0.23 0.25 0.27 0.28 0.26 0.23 0.20 0.17 0.14 0.11 0.08 0.08 0.09 0.07 0.06 0.03 0.03 0.02 0.01 0.00 0.00 0.00 0.01 0.02 0.04 0.08 0.10 0.10 0.09 0.07 0.07 0.08 0.11 0.15 0.19 0.21 0.22 0.22
0.28 0.28 0.26 0.23 0.19 0.15 0.12 0.10 0.09 0.09 0.13 0.18 0.19 0.15 0.08 0.04 0.02 0.01 0.01 0.02 0.01 0.01 0.02 0.03 0.03 0.02 0.01 0.01 0.01 0.02 0.05 0.10 0.17 0.22 0.25 0.27 0.27 0.27
0.25 0.21 0.17 0.14 0.10 0.08 0.07 0.08 0.11 0.17 0.26 0.31 0.25 0.14 0.05 0.01 0.01 0.04 0.08 0.13 0.09 0.01 0.04 0.02 0.01 0.01 0.00 0.01 0.02 0.06 0.10 0.13 0.17 0.20 0.22 0.23 0.24 0.24
0.18 0.13 0.09 0.05 0.03 0.02 0.02 0.06 0.11 0.18 0.21 0.19 0.12 0.04 0.02 0.03 0.11 0.18 0.17 0.18 0.11 0.02 0.05 0.04 0.02 0.02 0.01 0.02 0.03 0.05 0.07 0.10 0.14 0.18 0.20 0.20 0.20 0.20
0.09 0.06 0.03 0.02 0.02 0.03 0.08 0.14 0.10 0.07 0.04 0.03 0.03 0.04 0.05 0.07 0.15 0.25 0.22 0.15 0.06 0.02 0.04 0.06 0.02 0.02 0.01 0.01 0.02 0.03 0.06 0.12 0.17 0.20 0.20 0.20 0.20 0.20
0.02 0.01 0.02 0.01 0.03 0.11 0.17 0.17 0.08 0.02 0.00 0.02 0.06 0.06 0.06 0.05 0.06 0.15 0.21 0.23 0.14 0.02 0.02 0.04 0.03 0.02 0.02 0.01 0.01 0.03 0.05 0.08 0.09 0.10 0.11 0.13 0.14 0.17
0.00 0.00 0.01 0.03 0.08 0.16 0.16 0.13 0.05 0.02 0.04 0.03 0.01 0.00 0.00 0.00 0.02 0.09 0.27 0.49 0.36 0.17 0.01 0.08 0.12 0.15 0.22 0.03 0.01 0.01 0.02 0.03 0.06 0.08 0.09 0.10 0.12 0.15
0.02 0.01 0.01 0.06 0.13 0.15 0.10 0.03 0.03 0.08 0.06 0.01 0.00 0.00 0.00 0.01 0.01 0.02 0.13 0.49 0.69 0.40 0.06 0.33 0.46 0.22 0.31 0.14 0.01 0.00 0.02 0.09 0.16 0.18 0.21 0.23 0.26 0.33
0.03 0.02 0.03 0.09 0.10 0.06 0.02 0.02 0.05 0.05 0.01 0.00 0.01 0.01 0.01 0.02 0.02 0.02 0.03 0.11 0.31 0.42 0.23 0.47 0.79 0.46 0.46 0.28 0.05 0.01 0.02 0.13 0.32 0.37 0.38 0.44 0.50 0.52
0.03 0.06 0.08 0.06 0.02 0.00 0.00 0.02 0.02 0.00 0.01 0.04 0.04 0.03 0.02 0.02 0.03 0.04 0.03 0.02 0.03 0.06 0.12 0.24 0.52 0.50 0.51 0.42 0.19 0.06 0.09 0.13 0.27 0.40 0.49 0.60 0.70 0.71
0.05 0.06 0.03 0.01 0.00 0.00 0.00 0.00 0.00 0.00 0.04 0.08 0.07 0.04 0.03 0.03 0.05 0.07 0.12 0.11 0.12 0.05 0.03 0.09 0.21 0.39 0.42 0.24 0.28 0.23 0.23 0.30 0.32 0.43 0.57 0.65 0.77 0.91
0.06 0.02 0.00 0.00 0.00 0.00 0.00 0.00 0.00 0.01 0.03 0.05 0.09 0.10 0.07 0.06 0.05 0.07 0.16 0.21 0.24 0.16 0.08 0.05 0.06 0.10 0.20 0.28 0.29 0.23 0.26 0.36 0.50 0.59 0.70 0.69 0.69 0.89
0.03 0.00 0.00 0.01 0.01 0.01 0.01 0.01 0.01 0.02 0.06 0.11 0.13 0.14 0.15 0.14 0.11 0.08 0.14 0.23 0.24 0.17 0.15 0.12 0.11 0.11 0.11 0.13 0.24 0.36 0.39 0.47 0.52 0.55 0.66 0.74 0.70 0.70
0.00 0.01 0.01 0.01 0.01 0.01 0.02 0.04 0.05 0.04 0.08 0.14 0.18 0.19 0.21 0.17 0.14 0.14 0.15 0.17 0.15 0.14 0.15 0.16 0.22 0.38 0.36 0.20 0.14 0.35 0.63 0.68 0.55 0.53 0.63 0.79 0.93 0.80
0.01 0.02 0.02 0.02 0.02 0.03 0.06 0.09 0.09 0.07 0.08 0.12 0.15 0.17 0.21 0.22 0.18 0.16 0.16 0.19 0.21 0.16 0.12 0.10 0.16 0.43 0.70 0.59 0.42 0.40 0.49 0.70 0.82 0.87 0.78 0.69 0.76 0.72
0.01 0.01 0.01 0.02 0.04 0.07 0.10 0.11 0.13 0.13 0.13 0.16 0.16 0.17 0.21 0.25 0.20 0.15 0.15 0.14 0.17 0.18 0.17 0.12 0.10 0.19 0.36 0.38 0.31 0.30 0.39 0.47 0.73 1.11 1.05 0.77 0.62 0.55
0.02 0.02 0.01 0.02 0.07 0.12 0.13 0.13 0.12 0.11 0.13 0.15 0.16 0.17 0.20 0.25 0.26 0.20 0.18 0.20 0.19 0.20 0.19 0.10 0.04 0.06 0.15 0.30 0.30 0.24 0.25 0.25 0.25 0.35 0.73 1.18 1.45 1.49
0.02 0.03 0.03 0.05 0.10 0.13 0.13 0.11 0.10 0.09 0.14 0.19 0.20 0.18 0.20 0.22 0.20 0.21 0.21 0.22 0.23 0.19 0.15 0.09 0.04 0.04 0.08 0.16 0.21 0.18 0.15 0.14 0.14 0.17 0.41 0.72 1.03 1.23